Zurück zum Katalog

LEMUR 2 LIA-MARTIN

AktivWissenschaftSSO
NORAD 63248·PAYLOAD·🇺🇸 United States

Gestartet Mar 15, 2025 von Vandenberg Space Force Base

Loading…

Nächste Überflüge (nächste 24 Stunden)

TLE

AktuellSource: Space-Track

Epoche: Sep 14, 2026, 12:12 UTC

1 63248U 25052AQ  26257.50853347  .00003816  00000-0  32450-3 0  9999
2 63248  97.6736 148.5364 0001604 218.6708 141.4400 14.98425051 82055

Verfolge LEMUR 2 LIA-MARTIN in Echtzeit mit AllMySat

Download on the App Store